SES-12 (43488 NORAD) Tracking and Keplerian Element Data

This shows tracking and keplerian element data for the satellite.

Feedback or suggestion? Click here.




ElementValue
Catalog43488
NameSES-12
Epoch Orbit2442
Epoch Day34.70242692
Epoch Year2025
RAAN56.625
Inclination0.0141
Eccentricity0.0002417
Argument of Perigee229.3491
Mean Anonmoly195.9874
Mean Motion1.00270237
Decay Rate-2.65E-06
L11 43488U 18049A 25034.70242692 -.00000265 00000+0 00000+0 0 9997
L22 43488 0.0141 56.6250 0002417 229.3491 195.9874 1.00270237 24420



Live tracking and technical data element details for SES-12 (NORAD 43488). SES-12 can be tracked NOW for your location showing map with azimuth and elevation plus other details from your city location.







IsCatalogInMostPopularTable: catalog: 43488, numindb: 643
Update: records affected: 1



GetName: 43488 SES-12

Hit Count: updated at: Sat, 17 May 2025 09:24:46 GMT